TimeMST,TemperatureF,Dew PointF,Humidity,Sea Level PressureIn,VisibilityMPH,Wind Direction,Wind SpeedMPH,Gust SpeedMPH,PrecipitationIn,Events,Conditions,WindDirDegrees,DateUTC
12:16 AM,19.4,17.6,93,29.67,0.2,North,-9999.0,-,N/A,Snow,Heavy Snow,0,2013-11-17 07:16:00
12:36 AM,19.4,15.8,86,29.68,0.2,North,-9999.0,-,N/A,Snow,Heavy Snow,0,2013-11-17 07:36:00
12:56 AM,19.4,17.6,93,29.70,0.2,North,-9999.0,-,N/A,Snow,Heavy Snow,0,2013-11-17 07:56:00
1:16 AM,19.4,15.8,86,29.71,0.2,North,-9999.0,-,N/A,Snow,Heavy Snow,0,2013-11-17 08:16:00
1:36 AM,17.6,15.8,93,29.71,0.2,North,-9999.0,-,N/A,Snow,Heavy Snow,0,2013-11-17 08:36:00
1:56 AM,17.6,15.8,93,29.73,0.2,North,-9999.0,-,N/A,Snow,Heavy Snow,0,2013-11-17 08:56:00
2:16 AM,17.6,15.8,93,29.74,0.2,North,-9999.0,-,N/A,Snow,Heavy Snow,0,2013-11-17 09:16:00
2:36 AM,17.6,15.8,93,29.76,0.2,North,-9999.0,-,N/A,Snow,Heavy Snow,0,2013-11-17 09:36:00
2:56 AM,19.4,15.8,86,29.76,0.2,North,-9999.0,-,N/A,Snow,Heavy Snow,0,2013-11-17 09:56:00
3:16 AM,19.4,15.8,86,29.77,0.2,North,-9999.0,-,N/A,Snow,Heavy Snow,0,2013-11-17 10:16:00
3:36 AM,17.6,15.8,93,29.76,0.2,North,-9999.0,-,N/A,Snow,Heavy Snow,0,2013-11-17 10:36:00
3:56 AM,17.6,15.8,93,29.79,0.2,North,-9999.0,-,N/A,Snow,Heavy Snow,0,2013-11-17 10:56:00
4:16 AM,17.6,15.8,93,29.82,0.2,North,-9999.0,-,N/A,Snow,Heavy Snow,0,2013-11-17 11:16:00
4:36 AM,17.6,14.0,86,29.84,0.2,North,-9999.0,-,N/A,Fog,Light Freezing Fog,0,2013-11-17 11:36:00
4:56 AM,17.6,14.0,86,29.86,0.2,North,-9999.0,-,N/A,Fog,Light Freezing Fog,0,2013-11-17 11:56:00
5:16 AM,17.6,14.0,86,29.87,0.2,North,-9999.0,-,N/A,Snow,Light Snow,0,2013-11-17 12:16:00
5:36 AM,17.6,14.0,86,29.90,1.2,North,-9999.0,-,N/A,Snow,Light Snow,0,2013-11-17 12:36:00
5:56 AM,15.8,12.2,86,29.94,2.5,North,-9999.0,-,N/A,Snow,Light Snow,0,2013-11-17 12:56:00
6:16 AM,15.8,12.2,86,29.91,1.8,North,-9999.0,-,N/A,Snow,Light Snow,0,2013-11-17 13:16:00
6:36 AM,14.0,12.2,93,29.93,2.5,North,-9999.0,-,N/A,Snow,Light Snow,0,2013-11-17 13:36:00
6:56 AM,14.0,12.2,93,29.99,2.5,North,-9999.0,-,N/A,,Clear,0,2013-11-17 13:56:00
7:16 AM,14.0,12.2,93,30.02,5.0,North,-9999.0,-,N/A,,Clear,0,2013-11-17 14:16:00
7:36 AM,14.0,12.2,93,30.05,10.0,North,-9999.0,-,N/A,,Clear,0,2013-11-17 14:36:00
7:56 AM,15.8,12.2,86,30.07,10.0,North,-9999.0,-,N/A,,Clear,0,2013-11-17 14:56:00
8:16 AM,15.8,12.2,86,30.07,4.0,East,23.0,146.1,N/A,Snow,Light Snow,90,2013-11-17 15:16:00
8:36 AM,15.8,12.2,86,30.08,3.0,North,-9999.0,-,N/A,Snow,Light Snow,0,2013-11-17 15:36:00
8:56 AM,17.6,14.0,86,30.10,7.0,North,-9999.0,-,N/A,,Clear,0,2013-11-17 15:56:00
9:16 AM,17.6,14.0,86,30.09,7.0,North,-9999.0,-,N/A,,Clear,0,2013-11-17 16:16:00
9:36 AM,17.6,14.0,86,30.12,10.0,North,-9999.0,-,N/A,,Clear,0,2013-11-17 16:36:00
9:56 AM,17.6,14.0,86,30.14,10.0,North,-9999.0,-,N/A,,Clear,0,2013-11-17 16:56:00
10:16 AM,17.6,14.0,86,30.15,10.0,North,-9999.0,-,N/A,,Scattered Clouds,0,2013-11-17 17:16:00
10:36 AM,17.6,15.8,93,30.14,10.0,North,-9999.0,-,N/A,,Mostly Cloudy,0,2013-11-17 17:36:00
10:56 AM,19.4,17.6,93,30.15,10.0,North,-9999.0,-,N/A,,Mostly Cloudy,0,2013-11-17 17:56:00
11:16 AM,19.4,17.6,93,30.16,10.0,North,-9999.0,-,N/A,,Mostly Cloudy,0,2013-11-17 18:16:00
11:36 AM,19.4,17.6,93,30.16,3.0,North,-9999.0,-,N/A,,Overcast,0,2013-11-17 18:36:00
11:56 AM,19.4,17.6,93,30.17,10.0,North,-9999.0,-,N/A,,Mostly Cloudy,0,2013-11-17 18:56:00
12:16 PM,19.4,17.6,93,30.16,10.0,North,-9999.0,-,N/A,,Scattered Clouds,0,2013-11-17 19:16:00
12:36 PM,19.4,17.6,93,30.17,10.0,North,-9999.0,-,N/A,,Scattered Clouds,0,2013-11-17 19:36:00
12:56 PM,19.4,17.6,93,30.18,10.0,North,-9999.0,-,N/A,,Scattered Clouds,0,2013-11-17 19:56:00
1:16 PM,21.2,17.6,86,30.16,10.0,North,-9999.0,-,N/A,,Scattered Clouds,0,2013-11-17 20:16:00
1:36 PM,21.2,19.4,93,30.18,10.0,North,-9999.0,-,N/A,,Scattered Clouds,0,2013-11-17 20:36:00
1:56 PM,21.2,19.4,93,30.18,10.0,North,-9999.0,-,N/A,,Scattered Clouds,0,2013-11-17 20:56:00
2:16 PM,21.2,19.4,93,30.17,10.0,North,-9999.0,-,N/A,,Scattered Clouds,0,2013-11-17 21:16:00
2:36 PM,21.2,19.4,93,30.18,10.0,North,-9999.0,-,N/A,,Clear,0,2013-11-17 21:36:00
2:56 PM,21.2,19.4,93,30.18,10.0,North,-9999.0,-,N/A,,Clear,0,2013-11-17 21:56:00
3:16 PM,21.2,19.4,93,30.19,10.0,North,-9999.0,-,N/A,,Clear,0,2013-11-17 22:16:00
3:36 PM,21.2,19.4,93,30.20,10.0,North,-9999.0,-,N/A,,Clear,0,2013-11-17 22:36:00
3:56 PM,21.2,19.4,93,30.23,10.0,North,-9999.0,-,N/A,,Scattered Clouds,0,2013-11-17 22:56:00
4:16 PM,21.2,19.4,93,30.23,10.0,North,-9999.0,-,N/A,,Scattered Clouds,0,2013-11-17 23:16:00
4:36 PM,21.2,19.4,93,30.24,10.0,North,-9999.0,-,N/A,,Clear,0,2013-11-17 23:36:00
4:56 PM,21.2,17.6,86,30.25,10.0,North,-9999.0,-,N/A,,Clear,0,2013-11-17 23:56:00
5:16 PM,19.4,17.6,93,30.26,10.0,North,-9999.0,-,N/A,,Clear,0,2013-11-18 00:16:00
5:36 PM,19.4,17.6,93,30.27,10.0,North,-9999.0,-,N/A,,Clear,0,2013-11-18 00:36:00
5:56 PM,19.4,17.6,93,30.27,10.0,North,-9999.0,-,N/A,,Clear,0,2013-11-18 00:56:00
6:16 PM,19.4,17.6,93,30.28,10.0,North,-9999.0,-,N/A,,Clear,0,2013-11-18 01:16:00
6:36 PM,19.4,17.6,93,30.29,10.0,North,-9999.0,-,N/A,,Clear,0,2013-11-18 01:36:00
6:56 PM,19.4,15.8,86,30.30,10.0,North,-9999.0,-,N/A,,Clear,0,2013-11-18 01:56:00
7:16 PM,19.4,15.8,86,30.30,10.0,North,-9999.0,-,N/A,,Clear,0,2013-11-18 02:16:00
7:36 PM,19.4,15.8,86,30.30,10.0,North,-9999.0,-,N/A,,Clear,0,2013-11-18 02:36:00
7:56 PM,19.4,15.8,86,30.31,10.0,North,-9999.0,-,N/A,,Clear,0,2013-11-18 02:56:00
8:16 PM,19.4,17.6,93,30.30,10.0,North,-9999.0,-,N/A,,Clear,0,2013-11-18 03:16:00
8:36 PM,19.4,15.8,86,30.31,10.0,North,-9999.0,-,N/A,,Clear,0,2013-11-18 03:36:00
8:56 PM,19.4,15.8,86,30.32,10.0,North,-9999.0,-,N/A,,Clear,0,2013-11-18 03:56:00
9:16 PM,19.4,15.8,86,30.32,10.0,North,-9999.0,-,N/A,,Clear,0,2013-11-18 04:16:00
9:36 PM,19.4,17.6,93,30.32,10.0,North,-9999.0,-,N/A,,Clear,0,2013-11-18 04:36:00
9:56 PM,19.4,15.8,86,30.33,10.0,North,-9999.0,-,N/A,,Clear,0,2013-11-18 04:56:00
10:16 PM,19.4,15.8,86,30.33,10.0,North,-9999.0,-,N/A,,Clear,0,2013-11-18 05:16:00
10:36 PM,19.4,15.8,86,30.33,10.0,North,-9999.0,-,N/A,,Clear,0,2013-11-18 05:36:00
10:56 PM,19.4,15.8,86,30.33,10.0,North,-9999.0,-,N/A,,Clear,0,2013-11-18 05:56:00
11:16 PM,19.4,15.8,86,30.33,10.0,North,-9999.0,-,N/A,,Clear,0,2013-11-18 06:16:00
11:36 PM,17.6,15.8,93,30.33,5.0,North,-9999.0,-,N/A,,Clear,0,2013-11-18 06:36:00
11:56 PM,17.6,15.8,93,30.33,5.0,North,-9999.0,-,N/A,,Clear,0,2013-11-18 06:56:00